Weather History for Joplin, MO

Change the Weather History Date:

Saturday, February 2, 2013

  Actual Average Record
Temperature  
Mean Temperature 38 °F 37 °F  
Max Temperature 52 °F 47 °F 74 °F (2003)
Min Temperature 24 °F 26 °F -4 °F (1905)
Degree Days  
Heating Degree Days 27 28  
Month to date heating degree days 69 57  
Since 1 July heating degree days 2422 2606  
Cooling Degree Days 0 0  
Month to date cooling degree days 0 0  
Year to date cooling degree days 1 0  
Moisture  
Dew Point 26 °F    
Average Humidity 61    
Maximum Humidity 75    
Minimum Humidity 46    
Precipitation  
Precipitation T in 0.06 in 0.71 in (1943)
Month to date precipitation T 0.13  
Year to date precipitation 2.45 2.16  
Snow  
Snow 0.00 in - - ()
Month to date snowfall 0.0  
Snow Depth 0.00 in    
Sea Level Pressure  
Sea Level Pressure 30.21 in    
Wind  
Wind Speed 8 mph (WSW)    
Max Wind Speed 16 mph    
Max Gust Speed 24 mph    
Visibility 10 miles    
Events      
T = Trace of Precipitation, MM = Missing Value Source: NWS Daily Summary

Daily Weather History Graph

Daily Weather History Graph

Search for Another Location

Airport:

Trip Planner

Search our weather history database for the weather conditions in past years. The results will help you decide how hot, cold, wet, or windy it might be!

Date:

Astronomy

Feb. 02, 2013 Rise Set
Actual Time 7:19 AM CST 5:44 PM CST
Civil Twilight 6:52 AM CST 6:11 PM CST
Nautical Twilight 6:21 AM CST 6:42 PM CST
Astronomical Twilight 5:50 AM CST 7:13 PM CST
Moon No Moon Rise 10:41 AM CST (2/2)
Length of Visible Light 11h 19m
Length of Day
10h 24m
Waning Gibbous, 59% of the Moon is Illuminated
Feb 2
Waning Gibbous
Feb 3
Last Quarter
Feb 10
New
Feb 17
First Quarter
Feb 25
Full

Hourly Weather History & Observations

Time (CST) Temp. Windchill Dew Point Humidity Pressure Visibility Wind Dir Wind Speed Gust Speed Precip Events Conditions
12:53 AM 25.0 °F 18.1 °F 18.0 °F 75% 30.21 in 10.0 mi SSE 5.8 mph - N/A   Clear
1:53 AM 26.1 °F 18.4 °F 17.1 °F 69% 30.20 in 10.0 mi South 6.9 mph - N/A   Clear
2:53 AM 26.6 °F 20.0 °F 17.6 °F 69% 30.16 in 10.0 mi South 5.8 mph - N/A   Clear
3:53 AM 25.0 °F 18.1 °F 17.1 °F 72% 30.18 in 10.0 mi South 5.8 mph - N/A   Clear
4:53 AM 30.0 °F 21.7 °F 21.0 °F 69% 30.18 in 10.0 mi SSW 9.2 mph - N/A   Mostly Cloudy
5:53 AM 34.0 °F 27.2 °F 21.0 °F 59% 30.18 in 10.0 mi SW 8.1 mph - N/A   Overcast
6:53 AM 34.0 °F 28.8 °F 21.0 °F 59% 30.20 in 10.0 mi WSW 5.8 mph - N/A   Overcast
7:53 AM 33.1 °F 26.9 °F 24.1 °F 70% 30.22 in 10.0 mi WSW 6.9 mph - 0.00 in   Overcast
8:53 AM 35.1 °F 31.0 °F 24.1 °F 64% 30.25 in 10.0 mi West 4.6 mph - N/A   Mostly Cloudy
9:53 AM 37.9 °F 34.4 °F 24.1 °F 57% 30.27 in 10.0 mi WNW 4.6 mph - N/A   Partly Cloudy
10:53 AM 39.9 °F 35.8 °F 26.1 °F 58% 30.26 in 10.0 mi NW 5.8 mph - N/A   Clear
11:53 AM 45.0 °F 41.8 °F 28.0 °F 52% 30.26 in 10.0 mi NW 5.8 mph - N/A   Clear
12:53 PM 48.0 °F - 28.9 °F 48% 30.23 in 10.0 mi NW 5.8 mph - N/A   Clear
1:53 PM 50.0 °F - 30.9 °F 48% 30.22 in 10.0 mi WNW 10.4 mph 19.6 mph N/A   Clear
2:53 PM 50.0 °F - 32.0 °F 50% 30.21 in 10.0 mi WNW 11.5 mph 16.1 mph N/A   Clear
3:53 PM 51.1 °F - 32.0 °F 48% 30.21 in 10.0 mi NW 13.8 mph - N/A   Clear
4:53 PM 50.0 °F - 32.0 °F 50% 30.21 in 10.0 mi WSW 8.1 mph - N/A   Clear
5:53 PM 46.0 °F 41.9 °F 32.0 °F 58% 30.20 in 10.0 mi SW 8.1 mph - N/A   Clear
6:53 PM 43.0 °F 38.8 °F 30.9 °F 62% 30.20 in 10.0 mi SW 6.9 mph - N/A   Clear
7:53 PM 43.0 °F 37.7 °F 30.9 °F 62% 30.21 in 10.0 mi SW 9.2 mph - N/A   Clear
8:53 PM 42.1 °F 37.1 °F 30.9 °F 65% 30.21 in 10.0 mi SW 8.1 mph - N/A   Clear
9:53 PM 39.9 °F 34.5 °F 30.0 °F 68% 30.21 in 10.0 mi SW 8.1 mph - N/A   Clear
10:53 PM 42.1 °F 35.7 °F 28.9 °F 60% 30.19 in 10.0 mi WSW 11.5 mph - N/A   Clear
11:53 PM 43.0 °F 36.0 °F 28.0 °F 56% 30.18 in 10.0 mi WSW 13.8 mph - N/A   Clear